Flag for Sudan Weather past 2 weeks in Port Sudan, Sudan

Now
90 °F

Passing clouds.


Feels Like: 93 °F
Forecast: 78 / 105 °F
Wind: 8 mph from Northwest

Location: Jeddah King Abdul Aziz International Airport

Current Time: Jun 3, 2015 at 11:00:17 PM

Latest Report: Jun 3, 2015 at 10:00 PM


Visibility: N/A

Pressure: 29.71 "Hg

Humidity: 49%

Dew point: 68 °F

Location of Port SudanLocation

Historic Weather in Port Sudan — Graph

°F

Port Sudan temperature yesterday

Maximum temperature yesterday: 97 °F (at 12:00 PM)
Minimum temperature yesterday: 79 °F (at 5:00 AM)
Average temperature yesterday: 88 °F

Past Weeks' High & Low Weather Summary

 TemperatureHumidityPressure
High106 °F (May 20, 1:00 PM)84% (May 30, 6:00 AM)29.80 "Hg (May 30, 6:00 AM)
Low79 °F (Jun 2, 5:00 AM)14% (May 27, 1:00 PM)29.62 "Hg (Jun 1, 2:00 AM)
Average89 °F49%29.71 "Hg
* Reported May 19 10:00 PM — Jun 3 10:00 PM, Port Sudan, Weather by CustomWeather, © 2015

Note: Actual official high and low records may vary slightly from our data, if they occured in-between our weather recording intervals... More about our weather records

Advertising

Port Sudan weather history for previous 24 hours

 ConditionsComfort  
Time TempWeatherWind HumidityBarometerVisibility
10:00 PM
Wed, Jun 3
90 °FPassing clouds.8 mph49%29.71 "HgN/A
9:00 PM90 °FClear.7 mph52%29.68 "Hg10 mi
8:00 PM91 °FClear.8 mph52%29.68 "Hg10 mi
7:00 PM93 °FSunny.8 mph49%29.68 "Hg10 mi
6:00 PM93 °FSunny.9 mph49%29.65 "Hg10 mi
5:00 PM93 °FSunny.13 mph49%29.65 "Hg10 mi
4:00 PM93 °FSunny.9 mph49%29.68 "Hg10 mi
3:00 PM93 °FPassing clouds.10 mph49%29.68 "HgN/A
2:00 PM95 °FPassing clouds.12 mph47%29.71 "HgN/A
1:00 PM97 °FPassing clouds.12 mph42%29.71 "HgN/A
12:00 PM95 °FPassing clouds.14 mph44%29.71 "HgN/A
11:00 AM93 °FSunny.12 mph47%29.74 "Hg10 mi
10:00 AM91 °FSunny.5 mph46%29.74 "Hg10 mi
9:00 AM88 °FSunny.9 mph55%29.74 "Hg10 mi
8:00 AM84 °FSunny.5 mph66%29.74 "Hg10 mi
7:00 AM82 °FPassing clouds.5 mph70%29.74 "HgN/A
6:00 AM82 °FPassing clouds.5 mph62%29.71 "HgN/A
5:00 AM82 °FPassing clouds.5 mph58%29.71 "HgN/A
4:00 AM82 °FPassing clouds.12 mph66%29.71 "HgN/A
3:00 AM82 °FPassing clouds.9 mph62%29.71 "HgN/A
2:00 AM82 °FClear.9 mph62%29.74 "Hg10 mi
1:00 AM82 °FClear.7 mph58%29.77 "Hg10 mi
12:00 AM84 °FClear.No wind58%29.77 "Hg10 mi
11:00 PM
Tue, Jun 2
86 °FClear.5 mph59%29.80 "Hg10 mi
Weather by CustomWeather, © 2015

See weather overviewHow to use our weather pages